Weather History for Pensacola, FL

Change the Weather History Date:

Wednesday, February 27, 2013

  Actual Average Record
Temperature  
Mean Temperature 56 °F 57 °F  
Max Temperature 64 °F 66 °F 80 °F (1981)
Min Temperature 47 °F 48 °F 25 °F (1963)
Degree Days  
Heating Degree Days 9 8  
Month to date heating degree days 198 290  
Since 1 July heating degree days 870 1301  
Cooling Degree Days 0 0  
Month to date cooling degree days 10 0  
Year to date cooling degree days 40 6  
Growing Degree Days 5 (Base 50)    
Moisture  
Dew Point 42 °F    
Average Humidity 63    
Maximum Humidity 86    
Minimum Humidity 39    
Precipitation  
Precipitation 0.00 in 0.19 in 2.39 in (1903)
Month to date precipitation 11.91 4.88  
Year to date precipitation 14.27 9.51  
Snow  
Snow 0.00 in 0.00 in - ()
Month to date snowfall 0.0 0.0  
Since 1 July snowfall 0.0 0.0  
Snow Depth 0.00 in    
Sea Level Pressure  
Sea Level Pressure 29.98 in    
Wind  
Wind Speed 6 mph (West)    
Max Wind Speed 17 mph    
Max Gust Speed 21 mph    
Visibility 10 miles    
Events      
T = Trace of Precipitation, MM = Missing Value Source: NWS Daily Summary

Daily Weather History Graph

Daily Weather History Graph

Search for Another Location

Airport:

Trip Planner

Search our weather history database for the weather conditions in past years. The results will help you decide how hot, cold, wet, or windy it might be!

Date:

Astronomy

Feb. 27, 2013 Rise Set
Actual Time 6:16 AM CST 5:46 PM CST
Civil Twilight 5:52 AM CST 6:10 PM CST
Nautical Twilight 5:24 AM CST 6:38 PM CST
Astronomical Twilight 4:56 AM CST 7:06 PM CST
Moon 7:53 PM CST (2/27) 7:03 AM CST (2/27)
Length of Visible Light 12h 17m
Length of Day
11h 29m
Waning Gibbous, 96% of the Moon is Illuminated
Feb 27
Waning Gibbous
Mar 4
Last Quarter
Mar 11
New
Mar 19
First Quarter
Mar 27
Full

Hourly Weather History & Observations

Time (CST) Temp. Dew Point Humidity Pressure Visibility Wind Dir Wind Speed Gust Speed Precip Events Conditions
12:53 AM 52.0 °F 43.0 °F 71% 29.94 in 10.0 mi NW 8.1 mph - N/A   Clear
1:53 AM 51.1 °F 43.0 °F 74% 29.93 in 10.0 mi NNW 4.6 mph - N/A   Clear
2:53 AM 48.9 °F 42.1 °F 77% 29.93 in 10.0 mi Calm Calm - N/A   Clear
3:53 AM 48.0 °F 43.0 °F 83% 29.94 in 10.0 mi Calm Calm - N/A   Clear
4:53 AM 48.0 °F 44.1 °F 86% 29.97 in 10.0 mi Calm Calm - N/A   Clear
5:53 AM 46.9 °F 43.0 °F 86% 29.96 in 10.0 mi NNW 3.5 mph - N/A   Clear
6:53 AM 48.0 °F 43.0 °F 83% 29.99 in 10.0 mi NW 4.6 mph - N/A   Clear
7:53 AM 51.1 °F 43.0 °F 74% 30.00 in 10.0 mi Calm Calm - N/A   Clear
8:53 AM 53.6 °F 42.8 °F 67% 30.01 in 10.0 mi Calm Calm - N/A   Clear
9:53 AM 57.9 °F 37.0 °F 46% 30.03 in 10.0 mi Variable 4.6 mph - N/A   Clear
10:53 AM 59.0 °F 36.0 °F 42% 30.04 in 10.0 mi West 5.8 mph - N/A   Clear
11:53 AM 61.0 °F 36.0 °F 39% 30.01 in 10.0 mi Variable 5.8 mph - N/A   Clear
12:53 PM 62.1 °F 37.0 °F 39% 29.99 in 10.0 mi West 9.2 mph - N/A   Clear
1:53 PM 63.0 °F 41.0 °F 45% 29.97 in 10.0 mi South 11.5 mph - N/A   Clear
2:53 PM 63.0 °F 39.9 °F 43% 29.96 in 10.0 mi SSW 16.1 mph - N/A   Clear
3:53 PM 64.0 °F 39.0 °F 40% 29.95 in 10.0 mi SW 11.5 mph - N/A   Clear
4:53 PM 61.0 °F 39.9 °F 46% 29.96 in 10.0 mi SW 12.7 mph - N/A   Clear
5:53 PM 57.9 °F 42.1 °F 56% 29.98 in 10.0 mi WSW 9.2 mph - N/A   Clear
6:53 PM 55.9 °F 43.0 °F 62% 29.98 in 10.0 mi WSW 5.8 mph - N/A   Clear
7:53 PM 55.0 °F 44.1 °F 67% 29.99 in 10.0 mi WSW 4.6 mph - N/A   Clear
8:53 PM 54.0 °F 45.0 °F 72% 29.99 in 10.0 mi WSW 5.8 mph - N/A   Clear
9:53 PM 54.0 °F 45.0 °F 72% 29.99 in 10.0 mi WSW 4.6 mph - N/A   Clear
10:53 PM 54.0 °F 46.0 °F 75% 29.99 in 10.0 mi West 4.6 mph - N/A   Clear
11:53 PM 55.0 °F 48.0 °F 77% 29.98 in 10.0 mi West 5.8 mph - N/A   Clear